#timestamp,LO_Frequency,Hit 
1498021215.8,286046993.0,N
1498021235.7,286046990.5,N
1498021255.5,286046990.2,N
1498021275.3,286046992.7,N
1498021295.2,286046992.0,N
1498021315.9,286046990.4,N
1498021335.7,286046991.5,N
1498021355.1,286046991.6,N
1498021375.9,286046991.1,N
1498021395.7,286046988.8,N
1498021415.5,286046989.3,N
1498021435.4,286046991.6,N
1498021455.2,286046990.5,N
1498021475.0,286046993.2,N
1498021475.9,286046993.2,N
1498021495.8,286046991.2,N
1498021515.6,286046989.1,N
1498021535.4,286046991.1,N
1498021555.3,286046989.2,N
1498021575.1,286046989.7,N
1498021576.0,286046989.7,N
1498021595.8,286046989.5,N
1498021615.6,286046987.6,N
1498021635.5,286046989.6,N
1498021655.3,286046991.1,N
1498021675.1,286046988.5,N
1498021695.9,286046988.7,N
1498021715.7,286046991.6,N
1498021735.5,286046987.3,N
1498021755.4,286046987.8,N
1498021775.2,286046988.4,N
1498021795.0,286046987.6,N
1498021795.9,286046987.6,N
1498021815.8,286046987.3,N
1498021835.9,286046987.3,N
1498021855.7,286046987.2,N
1498021875.5,286046988.9,N
1498021895.4,286046989.7,N
1498021915.2,286046989.1,N
1498021935.0,286046990.7,N
1498021935.9,286046990.7,N
1498021955.8,286046988.6,N
1498021975.6,286046991.6,N
1498021995.4,286046991.5,N
1498022015.3,286046990.4,N
1498022035.1,286046990.6,N
1498022036.0,286046990.6,N
1498022055.8,286046991.3,N
1498022075.7,286046990.2,N
1498022095.5,286046990.8,N
1498022115.3,286046988.7,N
1498022135.1,286046989.2,N
1498022155.9,286046990.0,N
1498022175.7,286046987.1,N
1498022195.5,286046987.3,N
1498022215.4,286046987.6,N
1498022235.2,286046990.0,N
1498022255.0,286046987.5,N
1498022255.9,286046987.5,N
1498022275.8,286046991.4,N
1498022295.6,286046988.8,N
1498022315.4,286046989.9,N
1498022335.3,286046987.4,N
1498022355.1,286046989.2,N
1498022356.0,286046989.2,N
1498022375.8,286046987.2,N
1498022395.7,286046989.5,N
1498022415.6,286046986.9,N
1498022435.4,286046987.4,N
1498022455.2,286046989.1,N
1498022475.1,286046987.6,N
1498022476.0,286046987.6,N
1498022495.8,286046987.7,N
1498022515.6,286046989.2,N
1498022535.5,286046988.6,N
1498022555.3,286046991.5,N
1498022575.1,286046991.1,N
1498022595.8,286046990.0,N
1498022615.7,286046987.6,N
1498022635.5,286046987.5,N
1498022655.3,286046987.1,N
1498022675.2,286046987.0,N
1498022695.0,286046987.8,N
1498022695.9,286046987.8,N
1498022715.7,286046987.9,N
1498022735.6,286046987.3,N
1498022755.4,286046988.2,N
1498022775.2,286046987.1,N
1498022795.1,286046987.7,N
1498022796.0,286046987.7,N
1498022815.8,286046988.0,N
1498022835.6,286046987.8,N
1498022855.5,286046987.4,N
1498022875.3,286046988.3,N
1498022895.1,286046985.4,N
1498022915.8,286046988.2,N
1498022935.7,286046987.2,N
1498022955.5,286046989.8,N
1498022975.3,286046989.2,N
1498022995.2,286046987.4,N
1498023015.9,286046986.9,N
1498023035.7,286046987.3,N
1498023055.6,286046988.8,N
1498023075.4,286046989.5,N
1498023095.2,286046989.3,N
1498023115.0,286046987.8,N
1498023116.0,286046987.8,N
1498023135.8,286046987.0,N
1498023155.6,286046987.0,N
1498023175.4,286046987.0,N
1498023195.3,286046985.8,N
1498023215.1,286046985.3,N
1498023235.8,286046988.2,N
1498023255.3,286046988.4,N
1498023275.2,286046986.7,N
1498023295.9,286046986.2,N
1498023315.7,286046985.7,N
1498023335.5,286046985.6,N
1498023355.4,286046986.4,N
1498023375.2,286046984.0,N
1498023395.0,286046983.7,N
1498023395.9,286046983.7,N
1498023415.8,286046982.1,N
1498023435.6,286046985.0,N
1498023455.4,286046982.4,N
1498023475.3,286046982.4,N
1498023495.1,286046982.8,N
1498023496.0,286046982.8,N
1498023515.8,286046981.7,N
1498023535.7,286046981.4,N
1498023555.5,286046981.0,N
1498023575.3,286046983.4,N
1498023595.2,286046982.6,N
1498023615.9,286046984.4,N
1498023635.7,286046986.2,N
1498023655.5,286046988.4,N
1498023675.4,286046985.4,N
1498023695.2,286046986.2,N
1498023715.0,286046984.3,N
1498023735.3,286046984.8,N
1498023755.1,286046984.2,N
1498023756.0,286046984.2,N
1498023775.8,286046986.4,N
1498023795.7,286046984.3,N
1498023815.5,286046983.8,N
1498023835.3,286046985.1,N
1498023855.2,286046981.2,N
1498023875.9,286046982.6,N
1498023895.7,286046983.6,N
1498023915.5,286046982.3,N
1498023935.4,286046982.3,N
1498023955.2,286046983.6,N
1498023975.0,286046983.4,N
1498023975.9,286046983.4,N
1498023995.8,286046983.0,N
1498024015.6,286046982.3,N
1498024035.4,286046982.8,N
1498024055.3,286046983.0,N
1498024075.1,286046982.6,N
1498024076.0,286046982.6,N
1498024095.8,286046984.7,N
1498024115.7,286046983.0,N
1498024135.5,286046980.9,N
1498024155.3,286046983.6,N
1498024175.1,286046981.7,N
1498024195.9,286046981.6,N
1498024215.7,286046979.2,N
1498024235.6,286046979.1,N
1498024255.4,286046980.0,N
1498024275.2,286046978.4,N
1498024295.1,286046978.3,N
1498024296.0,286046978.3,N
1498024315.8,286046977.5,N
1498024335.6,286046979.0,N
1498024355.5,286046981.4,N
1498024375.3,286046981.7,N
1498024395.1,286046979.6,N
1498024415.8,286046981.7,N
1498024435.7,286046982.0,N
1498024455.5,286046981.3,N
1498024475.3,286046983.1,N
1498024495.2,286046983.4,N
1498024515.9,286046981.2,N
1498024535.8,286046983.2,N
1498024555.6,286046980.7,N
1498024575.4,286046982.7,N
1498024595.3,286046985.1,N
1498024615.1,286046980.9,N
1498024635.8,286046981.6,N
1498024655.7,286046981.2,N
1498024675.5,286046983.6,N
1498024695.3,286046981.8,N
1498024715.2,286046981.8,N
1498024735.9,286046977.3,N
1498024755.7,286046980.2,N
1498024775.6,286046979.7,N
1498024795.4,286046979.5,N
